When you browse on this site, cookies collect data to enhance your experience and personalize the content and advertising you see.
Visit our Privacy Policy to learn more. By continuing to use the site, you agree to this use of cookies and data.
  • In Portugal
  • List of Countries
  • For 7 days
  • Water Temperature
  • Satellite Maps
  • Weather Map
  • Weather Widgets
  • user-avatar
    Login

    Hourly Weather Smolan

    Today, 23 April, Tuesday

    Time Temperature Precipitation Wind Pressure Humidity
    00:00 +5°C° 0 mm 1 mps 657 mmHg 90%
    01:00 +4°C° 0 mm 1 mps 657 mmHg 89%
    02:00 +4°C° 0 mm 1 mps 657 mmHg 87%
    03:00 +4°C° 0 mm 1 mps 657 mmHg 87%
    04:00 +4°C° 0 mm 1 mps 657 mmHg 86%
    05:00 +4°C° 0 mm 1 mps 657 mmHg 86%
    06:00 +5°C° 0.6 mm 1 mps 657 mmHg 86%
    07:00 +5°C° 0.6 mm 1 mps 658 mmHg 87%
    08:00 +5°C° 0.6 mm 1 mps 658 mmHg 88%
    09:00 +7°C° 0.5 mm 1 mps 658 mmHg 83%
    10:00 +7°C° 0.5 mm 2 mps 659 mmHg 78%
    11:00 +8°C° 0.5 mm 2 mps 659 mmHg 73%
    12:00 +9°C° 0 mm 3 mps 659 mmHg 67%
    13:00 +10°C° 0 mm 3 mps 659 mmHg 60%
    14:00 +11°C° 0 mm 4 mps 660 mmHg 53%
    15:00 +11°C° 0 mm 4 mps 659 mmHg 55%
    16:00 +10°C° 0 mm 4 mps 659 mmHg 56%
    17:00 +10°C° 0 mm 4 mps 659 mmHg 57%
    18:00 +8°C° 0 mm 3 mps 658 mmHg 63%
    19:00 +6°C° 0 mm 2 mps 657 mmHg 70%
    20:00 +5°C° 0 mm 1 mps 657 mmHg 77%
    21:00 +5°C° 0 mm 1 mps 657 mmHg 75%
    22:00 +5°C° 0 mm 1 mps 657 mmHg 72%
    23:00 +5°C° 0 mm 1 mps 657 mmHg 70%

    Tomorrow, 24 April, Wednesday

    Time Temperature Precipitation Wind Pressure Humidity
    00:00 +4°C° 0.1 mm 1 mps 657 mmHg 70%
    01:00 +4°C° 0.1 mm 1 mps 657 mmHg 71%
    02:00 +3°C° 0.1 mm 1 mps 657 mmHg 71%
    03:00 +4°C° 0 mm 1 mps 657 mmHg 72%
    04:00 +4°C° 0 mm 1 mps 657 mmHg 72%
    05:00 +4°C° 0 mm 1 mps 657 mmHg 73%
    06:00 +6°C° 0 mm 1 mps 658 mmHg 67%
    07:00 +8°C° 0 mm 1 mps 659 mmHg 62%
    08:00 +11°C° 0 mm 1 mps 660 mmHg 57%
    09:00 +13°C° 0 mm 2 mps 660 mmHg 53%
    10:00 +15°C° 0 mm 2 mps 661 mmHg 50%
    11:00 +16°C° 0 mm 2 mps 662 mmHg 46%
    12:00 +17°C° 0 mm 2 mps 662 mmHg 46%
    13:00 +18°C° 0 mm 2 mps 662 mmHg 46%
    14:00 +18°C° 0 mm 2 mps 662 mmHg 46%
    15:00 +17°C° 0 mm 2 mps 661 mmHg 51%
    16:00 +16°C° 0 mm 2 mps 661 mmHg 57%
    17:00 +15°C° 0 mm 1 mps 660 mmHg 62%
    18:00 +13°C° 0 mm 1 mps 660 mmHg 72%
    19:00 +11°C° 0 mm 1 mps 659 mmHg 82%
    20:00 +8°C° 0 mm 0 mps 658 mmHg 93%
    21:00 +7°C° 0 mm 0 mps 659 mmHg 93%
    22:00 +7°C° 0 mm 0 mps 659 mmHg 93%
    23:00 +8°C° 0 mm 1 mps 659 mmHg 93%

    Day after tomorrow, 25 April, Thursday

    Time Temperature Precipitation Wind Pressure Humidity
    00:00 +8°C° 0 mm 1 mps 659 mmHg 92%
    01:00 +7°C° 0 mm 1 mps 659 mmHg 92%
    02:00 +7°C° 0 mm 1 mps 659 mmHg 92%
    03:00 +7°C° 0 mm 1 mps 659 mmHg 92%
    04:00 +7°C° 0 mm 1 mps 659 mmHg 92%
    05:00 +7°C° 0 mm 1 mps 659 mmHg 91%
    06:00 +9°C° 0 mm 1 mps 660 mmHg 83%
    07:00 +11°C° 0 mm 1 mps 661 mmHg 76%
    08:00 +12°C° 0 mm 0 mps 661 mmHg 68%
    09:00 +15°C° 0 mm 1 mps 662 mmHg 62%
    10:00 +16°C° 0 mm 1 mps 662 mmHg 56%
    11:00 +19°C° 0 mm 1 mps 663 mmHg 51%
    12:00 +18°C° 0.1 mm 2 mps 663 mmHg 53%
    13:00 +18°C° 0.1 mm 2 mps 662 mmHg 56%
    14:00 +17°C° 0.1 mm 2 mps 662 mmHg 58%
    15:00 +17°C° 0.3 mm 2 mps 661 mmHg 63%
    16:00 +16°C° 0.3 mm 2 mps 661 mmHg 68%
    17:00 +15°C° 0.3 mm 1 mps 660 mmHg 73%
    18:00 +13°C° 0.1 mm 1 mps 660 mmHg 80%
    19:00 +12°C° 0.1 mm 1 mps 659 mmHg 87%
    20:00 +9°C° 0.1 mm 0 mps 659 mmHg 93%
    21:00 +9°C° 0.1 mm 0 mps 659 mmHg 93%
    22:00 +9°C° 0.1 mm 0 mps 659 mmHg 93%
    23:00 +8°C° 0.1 mm 0 mps 659 mmHg 93%

    26 April, Friday

    Time Temperature Precipitation Wind Pressure Humidity
    00:00 +8°C° 0.2 mm 0 mps 659 mmHg 94%
    01:00 +8°C° 0.2 mm 0 mps 659 mmHg 94%
    02:00 +8°C° 0.2 mm 0 mps 659 mmHg 94%
    03:00 +8°C° 0 mm 0 mps 658 mmHg 94%
    04:00 +8°C° 0 mm 0 mps 658 mmHg 95%
    05:00 +9°C° 0 mm 1 mps 658 mmHg 95%
    06:00 +9°C° 0 mm 0 mps 659 mmHg 90%
    07:00 +11°C° 0 mm 0 mps 659 mmHg 85%
    08:00 +12°C° 0 mm 0 mps 660 mmHg 81%
    09:00 +14°C° 0.3 mm 1 mps 660 mmHg 77%
    10:00 +15°C° 0.3 mm 1 mps 661 mmHg 74%
    11:00 +16°C° 0.3 mm 1 mps 661 mmHg 71%
    12:00 +16°C° 0.7 mm 1 mps 660 mmHg 73%
    13:00 +15°C° 0.7 mm 1 mps 660 mmHg 75%
    14:00 +15°C° 0.7 mm 1 mps 659 mmHg 77%
    15:00 +15°C° 0.6 mm 1 mps 659 mmHg 79%
    16:00 +15°C° 0.6 mm 1 mps 659 mmHg 80%
    17:00 +14°C° 0.6 mm 1 mps 658 mmHg 82%
    18:00 +13°C° 0.1 mm 1 mps 658 mmHg 86%
    19:00 +11°C° 0.1 mm 0 mps 658 mmHg 90%
    20:00 +10°C° 0.1 mm 0 mps 658 mmHg 94%
    21:00 +10°C° 0 mm 0 mps 658 mmHg 95%
    22:00 +9°C° 0 mm 0 mps 658 mmHg 95%
    23:00 +9°C° 0 mm 0 mps 658 mmHg 95%

    27 April, Saturday

    Time Temperature Precipitation Wind Pressure Humidity
    00:00 +9°C° 0 mm 0 mps 657 mmHg 96%
    01:00 +8°C° 0 mm 0 mps 657 mmHg 96%
    02:00 +9°C° 0 mm 1 mps 657 mmHg 96%
    03:00 +9°C° 0 mm 1 mps 657 mmHg 96%
    04:00 +9°C° 0 mm 1 mps 656 mmHg 96%
    05:00 +9°C° 0 mm 1 mps 656 mmHg 96%
    06:00 +10°C° 0 mm 1 mps 657 mmHg 92%
    07:00 +12°C° 0 mm 1 mps 657 mmHg 88%
    08:00 +14°C° 0 mm 1 mps 658 mmHg 84%
    09:00 +15°C° 0.1 mm 1 mps 658 mmHg 79%
    10:00 +16°C° 0.1 mm 1 mps 658 mmHg 73%
    11:00 +18°C° 0.1 mm 1 mps 659 mmHg 67%
    12:00 +18°C° 0.5 mm 1 mps 658 mmHg 68%
    13:00 +18°C° 0.5 mm 1 mps 658 mmHg 68%
    14:00 +19°C° 0.5 mm 1 mps 657 mmHg 69%
    15:00 +18°C° 1 mm 1 mps 657 mmHg 72%
    16:00 +16°C° 1 mm 1 mps 656 mmHg 74%
    17:00 +16°C° 1 mm 1 mps 656 mmHg 77%
    18:00 +14°C° 1.5 mm 1 mps 655 mmHg 83%
    19:00 +13°C° 1.5 mm 1 mps 655 mmHg 88%
    20:00 +11°C° 1.5 mm 1 mps 654 mmHg 93%
    21:00 +11°C° 0.9 mm 1 mps 654 mmHg 93%
    22:00 +10°C° 0.9 mm 1 mps 654 mmHg 94%
    23:00 +10°C° 0.9 mm 1 mps 654 mmHg 94%

    28 April, Sunday

    Time Temperature Precipitation Wind Pressure Humidity
    00:00 +10°C° 0.3 mm 1 mps 654 mmHg 94%
    01:00 +10°C° 0.3 mm 1 mps 654 mmHg 94%
    02:00 +10°C° 0.3 mm 1 mps 653 mmHg 94%
    03:00 +10°C° 0.2 mm 1 mps 653 mmHg 94%
    04:00 +9°C° 0.2 mm 1 mps 653 mmHg 93%
    05:00 +9°C° 0.2 mm 1 mps 653 mmHg 93%
    06:00 +11°C° 0.5 mm 1 mps 653 mmHg 88%
    07:00 +12°C° 0.5 mm 1 mps 654 mmHg 83%
    08:00 +14°C° 0.5 mm 1 mps 655 mmHg 78%
    09:00 +14°C° 1.7 mm 1 mps 655 mmHg 76%
    10:00 +15°C° 1.7 mm 1 mps 655 mmHg 75%
    11:00 +16°C° 1.7 mm 1 mps 655 mmHg 73%
    12:00 +16°C° 2.9 mm 2 mps 654 mmHg 74%
    13:00 +15°C° 2.9 mm 2 mps 654 mmHg 76%
    14:00 +15°C° 2.9 mm 2 mps 654 mmHg 77%
    15:00 +14°C° 2.4 mm 1 mps 653 mmHg 79%
    16:00 +13°C° 2.4 mm 1 mps 653 mmHg 80%
    17:00 +13°C° 2.4 mm 1 mps 653 mmHg 82%
    18:00 +11°C° 1.2 mm 1 mps 652 mmHg 85%
    19:00 +10°C° 1.2 mm 1 mps 652 mmHg 89%
    20:00 +9°C° 1.2 mm 1 mps 652 mmHg 92%
    21:00 +8°C° 0.3 mm 1 mps 652 mmHg 93%
    22:00 +8°C° 0.3 mm 1 mps 653 mmHg 93%
    23:00 +8°C° 0.3 mm 1 mps 653 mmHg 93%
    Show more